Bloomington, IN

7:16 PM EST on February 06, 2016 (GMT -0500)
Monroe County

Weather History for KBMG - February, 2012

Change the Weather History Date:

Friday, February 3, 2012

  Actual Average Record
Temperature  
Mean Temperature 42 °F 31 °F  
Max Temperature 55 °F 40 °F - ()
Min Temperature 28 °F 21 °F - ()
Degree Days  
Heating Degree Days 23 34  
Month to date heating degree days 58 104  
Since 1 July heating degree days 2748 3279  
Cooling Degree Days 0 0  
Month to date cooling degree days 0 0  
Year to date cooling degree days 0 0  
Moisture  
Dew Point 32 °F    
Average Humidity 69    
Maximum Humidity 92    
Minimum Humidity 45    
Precipitation  
Precipitation T in 0.10 in - ()
Month to date precipitation 0.08 0.30  
Year to date precipitation 3.22 3.61  
Sea Level Pressure  
Sea Level Pressure 30.35 in    
Wind  
Wind Speed 5 mph (East)    
Max Wind Speed 13 mph    
Max Gust Speed 15 mph    
Visibility 8 miles    
Events Rain    
T = Trace of Precipitation, MM = Missing Value Source: NWS Daily Summary

Daily Weather History Graph

Daily Weather History Graph

Search for Another Location

Airport or City:

Trip Planner

Search our weather history database for the weather conditions in past years. The results will help you decide how hot, cold, wet, or windy it might be!

Date:

Astronomy

Feb. 03, 2012 Rise Set
Actual Time 7:51 AM EST 6:09 PM EST
Civil Twilight 7:23 AM EST 6:37 PM EST
Nautical Twilight 6:51 AM EST 7:09 PM EST
Astronomical Twilight 6:20 AM EST 7:40 PM EST
Moon 2:11 PM EST (2/3) 4:26 AM EST (2/3)
Length of Visible Light 11h 13m
Length of Day
10h 17m
Waxing Gibbous, 81% of the Moon is Illuminated
Feb 3
Waxing Gibbous
Feb 7
Full
Feb 14
Last Quarter
Feb 21
New
Feb 29
First Quarter

Hourly Weather History & Observations

Time (EST) Temp. Windchill Dew Point Humidity Pressure Visibility Wind Dir Wind Speed Gust Speed Precip Events Conditions
12:53 AM 30.9 °F - 28.9 °F 92% 30.39 in 6.0 mi Calm Calm - N/A   Clear
1:53 AM 30.9 °F - 28.9 °F 92% 30.39 in 4.0 mi Calm Calm - N/A   Clear
2:53 AM 30.0 °F - 28.0 °F 92% 30.39 in 4.0 mi Calm Calm - N/A   Clear
3:53 AM 32.0 °F - 28.0 °F 85% 30.40 in 8.0 mi Calm Calm - N/A   Clear
4:53 AM 30.0 °F - 27.0 °F 88% 30.40 in 8.0 mi Calm Calm - N/A   Clear
5:53 AM 28.9 °F - 26.1 °F 89% 30.40 in 7.0 mi Calm Calm - N/A   Clear
6:53 AM 30.0 °F - 28.0 °F 92% 30.41 in 4.0 mi Calm Calm - N/A   Clear
7:53 AM 30.9 °F - 28.0 °F 89% 30.43 in 6.0 mi Calm Calm - N/A   Clear
8:53 AM 36.0 °F 33.3 °F 33.1 °F 89% 30.42 in 6.0 mi East 3.5 mph - N/A   Clear
9:53 AM 39.0 °F 33.4 °F 34.0 °F 82% 30.40 in 8.0 mi East 8.1 mph - N/A   Clear
10:53 AM 44.1 °F 39.0 °F 36.0 °F 73% 30.40 in 10.0 mi East 9.2 mph - N/A   Clear
11:53 AM 48.0 °F - 37.0 °F 66% 30.40 in 10.0 mi ESE 8.1 mph - N/A   Clear
12:53 PM 50.0 °F - 36.0 °F 59% 30.37 in 10.0 mi ESE 11.5 mph - N/A   Clear
1:53 PM 53.1 °F - 35.1 °F 50% 30.34 in 10.0 mi SE 8.1 mph - N/A   Clear
2:53 PM 53.1 °F - 34.0 °F 48% 30.33 in 10.0 mi East 5.8 mph - N/A   Clear
3:53 PM 54.0 °F - 32.0 °F 43% 30.30 in 10.0 mi East 6.9 mph - N/A   Clear
4:53 PM 53.1 °F - 32.0 °F 45% 30.30 in 10.0 mi East 5.8 mph - N/A   Clear
5:53 PM 51.1 °F - 33.1 °F 50% 30.30 in 10.0 mi East 6.9 mph - N/A   Clear
6:53 PM 50.0 °F - 33.1 °F 52% 30.30 in 10.0 mi East 5.8 mph - N/A   Clear
7:53 PM 48.9 °F - 35.1 °F 59% 30.30 in 10.0 mi East 6.9 mph - N/A   Overcast
8:53 PM 48.9 °F - 35.1 °F 59% 30.30 in 10.0 mi East 4.6 mph - N/A   Overcast
9:53 PM 48.0 °F - 37.0 °F 66% 30.26 in 10.0 mi ENE 11.5 mph - 0.00 in Rain Light Rain
10:53 PM 46.9 °F - 36.0 °F 66% 30.24 in 10.0 mi East 6.9 mph - 0.00 in   Overcast
11:53 PM 46.9 °F - 35.1 °F 63% 30.24 in 10.0 mi Calm Calm - N/A   Overcast